,,,PA_Meas_PMT16A,,PR_Meas_QMR101_102,,RH_Meas_QMH101,,SR_Meas_QMS101,,TA_Meas_QMH101,,GenWind,,GenWind,
date,time,status,PA,status,PR,status,RH,status,SR,status,TA,status,DirAvg,status,SpdAvg,
2009-04-27, 00:00:04,VALID,1001.55,VALID,0,VALID,87.9771,VALID,0.112286,VALID,24.3842,VALID,177,VALID,0.804297,
2009-04-27, 00:01:04,VALID,1001.52,VALID,0,VALID,87.9085,VALID,0,VALID,24.3647,VALID,181,VALID,1.03203,
2009-04-27, 00:02:04,VALID,1001.51,VALID,0,VALID,87.9009,VALID,0,VALID,24.3647,VALID,176,VALID,0.949219,
2009-04-27, 00:03:04,VALID,1001.53,VALID,0,VALID,88.1145,VALID,0,VALID,24.3647,VALID,169,VALID,0.562891,
2009-04-27, 00:04:04,VALID,1001.49,VALID,0,VALID,88.2518,VALID,0,VALID,24.3257,VALID,165,VALID,0.3875,
2009-04-27, 00:05:04,VALID,1001.51,VALID,0,VALID,88.2289,VALID,0,VALID,24.2866,VALID,167,VALID,0.664453,
2009-04-27, 00:06:04,VALID,1001.49,VALID,0,VALID,88.3281,VALID,0,VALID,24.2866,VALID,169,VALID,0.621094,
2009-04-27, 00:07:04,VALID,1001.49,VALID,0,VALID,88.1908,VALID,0,VALID,24.2866,VALID,170,VALID,0.5,
2009-04-27, 00:08:04,VALID,1001.5,VALID,0,VALID,88.2289,VALID,0,VALID,24.2885,VALID,167,VALID,0.383984,
2009-04-27, 00:09:04,VALID,1001.47,VALID,0,VALID,88.3205,VALID,0,VALID,24.269,VALID,167,VALID,0.254297,
2009-04-27, 00:10:04,VALID,1001.47,VALID,0,VALID,88.6714,VALID,0,VALID,24.2495,VALID,167,VALID,0.260547,
2009-04-27, 00:11:04,VALID,1001.44,VALID,0,VALID,88.702,VALID,0,VALID,24.1891,VALID,167,VALID,0.258984,
2009-04-27, 00:12:04,VALID,1001.43,VALID,0,VALID,88.6714,VALID,0,VALID,24.1909,VALID,114,VALID,0.692187,
2009-04-27, 00:13:04,VALID,1001.43,VALID,0,VALID,88.6791,VALID,0,VALID,24.1714,VALID,111,VALID,0.588672,
2009-04-27, 00:14:04,VALID,1001.42,VALID,0,VALID,88.7554,VALID,0,VALID,24.15,VALID,131,VALID,0.667188,
2009-04-27, 00:15:04,VALID,1001.46,VALID,0,VALID,88.9385,VALID,0,VALID,24.1305,VALID,139,VALID,0.460547,
2009-04-27, 00:16:04,VALID,1001.47,VALID,0,VALID,89.0377,VALID,0,VALID,24.1128,VALID,139,VALID,0.279297,
2009-04-27, 00:17:04,VALID,1001.49,VALID,0,VALID,89.0453,VALID,0,VALID,24.1324,VALID,139,VALID,0.240625,
2009-04-27, 00:18:04,VALID,1001.52,VALID,0,VALID,89.1445,VALID,0,VALID,24.1324,VALID,139,VALID,0.192969,
2009-04-27, 00:19:04,VALID,1001.51,VALID,0,VALID,89.32,VALID,0,VALID,24.111,VALID,139,VALID,0.435937,
2009-04-27, 00:20:04,VALID,1001.51,VALID,0,VALID,89.3352,VALID,0,VALID,24.1128,VALID,139,VALID,0.278125,
2009-04-27, 00:21:04,VALID,1001.51,VALID,0,VALID,89.114,VALID,0,VALID,24.0933,VALID,139,VALID,0.398047,
2009-04-27, 00:22:04,VALID,1001.5,VALID,0,VALID,89.236,VALID,0,VALID,24.1324,VALID,139,VALID,0.342187,
2009-04-27, 00:23:04,VALID,1001.47,VALID,0,VALID,89.1368,VALID,0,VALID,24.1324,VALID,139,VALID,0.302734,
2009-04-27, 00:24:04,VALID,1001.46,VALID,0,VALID,89.2666,VALID,0,VALID,24.1128,VALID,139,VALID,0.339844,
2009-04-27, 00:25:04,VALID,1001.46,VALID,0,VALID,89.3047,VALID,0,VALID,24.0915,VALID,139,VALID,0.290625,
2009-04-27, 00:26:04,VALID,1001.46,VALID,0,VALID,89.3581,VALID,0,VALID,24.072,VALID,139,VALID,0.303516,
2009-04-27, 00:27:04,VALID,1001.47,VALID,0,VALID,89.3963,VALID,0,VALID,24.0933,VALID,139,VALID,0.395312,
2009-04-27, 00:28:04,VALID,1001.43,VALID,0,VALID,89.2971,VALID,0,VALID,24.0933,VALID,139,VALID,0.326172,
2009-04-27, 00:29:04,VALID,1001.45,VALID,0,VALID,89.2894,VALID,0,VALID,24.0933,VALID,139,VALID,0.253906,
2009-04-27, 00:30:04,VALID,1001.47,VALID,0,VALID,89.442,VALID,0,VALID,24.0738,VALID,139,VALID,0.174219,
2009-04-27, 00:31:04,VALID,1001.47,VALID,0,VALID,89.4344,VALID,0,VALID,24.0738,VALID,139,VALID,0.186328,
2009-04-27, 00:32:04,VALID,1001.46,VALID,0,VALID,89.4573,VALID,0,VALID,24.0543,VALID,139,VALID,0.202344,
2009-04-27, 00:33:04,VALID,1001.45,VALID,0,VALID,89.5412,VALID,0,VALID,24.0348,VALID,139,VALID,0.432031,
2009-04-27, 00:34:04,VALID,1001.43,VALID,0,VALID,89.5565,VALID,0,VALID,24.0329,VALID,139,VALID,0.418359,
2009-04-27, 00:35:04,VALID,1001.43,VALID,0,VALID,89.6023,VALID,0,VALID,23.9939,VALID,139,VALID,0.402344,
2009-04-27, 00:36:04,VALID,1001.39,VALID,0,VALID,89.5489,VALID,0,VALID,23.9762,VALID,139,VALID,0.183203,
2009-04-27, 00:37:04,VALID,1001.36,VALID,0,VALID,89.938,VALID,0,VALID,23.8982,VALID,139,VALID,0.163281,
2009-04-27, 00:38:04,VALID,1001.36,VALID,0,VALID,90.5788,VALID,0,VALID,23.8786,VALID,139,VALID,0.253906,
2009-04-27, 00:39:04,VALID,1001.35,VALID,0,VALID,91.0671,VALID,0,VALID,23.8378,VALID,139,VALID,0.369922,
2009-04-27, 00:40:04,VALID,1001.32,VALID,0,VALID,91.1587,VALID,0,VALID,23.8183,VALID,139,VALID,0.564844,
2009-04-27, 00:41:04,VALID,1001.29,VALID,0,VALID,90.7085,VALID,0,VALID,23.8396,VALID,139,VALID,0.642187,
2009-04-27, 00:42:04,VALID,1001.3,VALID,0,VALID,90.6704,VALID,0,VALID,23.8378,VALID,139,VALID,0.4875,
2009-04-27, 00:43:04,VALID,1001.28,VALID,0,VALID,90.5178,VALID,0,VALID,23.8786,VALID,140,VALID,0.688281,
2009-04-27, 00:44:04,VALID,1001.24,VALID,0,VALID,90.4186,VALID,0,VALID,23.9177,VALID,140,VALID,0.328125,
2009-04-27, 00:45:04,VALID,1001.26,VALID,0,VALID,90.3652,VALID,0,VALID,23.9177,VALID,140,VALID,0.304688,
2009-04-27, 00:46:04,VALID,1001.22,VALID,0,VALID,90.3805,VALID,0,VALID,23.8982,VALID,136,VALID,0.294922,
2009-04-27, 00:47:04,VALID,1001.21,VALID,0,VALID,90.3728,VALID,0,VALID,23.8982,VALID,136,VALID,0.363672,
2009-04-27, 00:48:04,VALID,1001.15,VALID,0,VALID,90.5178,VALID,0,VALID,23.8982,VALID,136,VALID,0.287109,
2009-04-27, 00:49:05,VALID,1001.16,VALID,0,VALID,90.5636,VALID,0,VALID,23.8982,VALID,136,VALID,0.00273437,
2009-04-27, 00:50:05,VALID,1001.13,VALID,0,VALID,90.7162,VALID,0,VALID,23.8786,VALID,133,VALID,0.592188,
2009-04-27, 00:51:05,VALID,1001.12,VALID,0,VALID,90.6399,VALID,0,VALID,23.9177,VALID,120,VALID,0.485547,
2009-04-27, 00:52:05,VALID,1001.07,VALID,0,VALID,90.6017,VALID,0,VALID,23.8982,VALID,120,VALID,0.483984,
2009-04-27, 00:53:05,VALID,1001.07,VALID,0,VALID,90.5788,VALID,0,VALID,23.9177,VALID,120,VALID,0.376563,
2009-04-27, 00:54:05,VALID,1001.07,VALID,0,VALID,90.5788,VALID,0,VALID,23.8963,VALID,120,VALID,0.259375,
2009-04-27, 00:55:05,VALID,1001.08,VALID,0,VALID,90.6475,VALID,0,VALID,23.8982,VALID,120,VALID,0.385547,
2009-04-27, 00:56:05,VALID,1001.09,VALID,0,VALID,90.7925,VALID,0,VALID,23.8786,VALID,120,VALID,0.0890625,
2009-04-27, 00:57:05,VALID,1001.06,VALID,0,VALID,90.762,VALID,0,VALID,23.8396,VALID,120,VALID,0,
2009-04-27, 00:58:05,VALID,1001.07,VALID,0,VALID,90.8688,VALID,0,VALID,23.8006,VALID,120,VALID,0.034375,
2009-04-27, 00:59:05,VALID,1001.08,VALID,0,VALID,90.8611,VALID,0,VALID,23.7811,VALID,120,VALID,0.39375,
2009-04-27, 01:00:05,VALID,1001.07,VALID,0,VALID,90.9527,VALID,0,VALID,23.7616,VALID,122,VALID,0.514844,
2009-04-27, 01:01:05,VALID,1001.05,VALID,0,VALID,90.8154,VALID,0,VALID,23.7811,VALID,149,VALID,0.857422,
2009-04-27, 01:02:05,VALID,1001.05,VALID,0,VALID,90.4644,VALID,0,VALID,23.8201,VALID,150,VALID,0.528906,
2009-04-27, 01:03:05,VALID,1001.03,VALID,0,VALID,90.3194,VALID,0,VALID,23.8591,VALID,150,VALID,0.63125,
2009-04-27, 01:04:05,VALID,1001,VALID,0,VALID,90.1974,VALID,0,VALID,23.8786,VALID,149,VALID,0.69375,
2009-04-27, 01:05:05,VALID,1001,VALID,0,VALID,90.1592,VALID,0,VALID,23.8786,VALID,149,VALID,0.559375,
2009-04-27, 01:06:05,VALID,1000.95,VALID,0,VALID,90.0829,VALID,0,VALID,23.8786,VALID,149,VALID,0.537891,
2009-04-27, 01:07:05,VALID,1000.98,VALID,0,VALID,90.0982,VALID,0,VALID,23.8982,VALID,149,VALID,0.446094,
2009-04-27, 01:08:05,VALID,1000.97,VALID,0,VALID,90.1745,VALID,0,VALID,23.8786,VALID,149,VALID,0.252734,
2009-04-27, 01:09:05,VALID,1000.93,VALID,0,VALID,90.2431,VALID,0,VALID,23.8786,VALID,149,VALID,0.224219,
2009-04-27, 01:10:05,VALID,1000.94,VALID,0,VALID,90.5407,VALID,0,VALID,23.8396,VALID,149,VALID,0.277734,
2009-04-27, 01:11:05,VALID,1000.91,VALID,0,VALID,90.7772,VALID,0,VALID,23.7811,VALID,149,VALID,0.339844,
2009-04-27, 01:12:05,VALID,1000.91,VALID,0,VALID,91.1434,VALID,0,VALID,23.7225,VALID,149,VALID,0.378906,
2009-04-27, 01:13:05,VALID,1000.86,VALID,0,VALID,91.1816,VALID,0,VALID,23.6835,VALID,147,VALID,0.456641,
2009-04-27, 01:14:05,VALID,1000.84,VALID,0,VALID,91.4257,VALID,0,VALID,23.6445,VALID,145,VALID,0.409375,
2009-04-27, 01:15:05,VALID,1000.84,VALID,0,VALID,91.2197,VALID,0,VALID,23.625,VALID,103,VALID,0.620703,
2009-04-27, 01:16:05,VALID,1000.82,VALID,0,VALID,91.3037,VALID,0,VALID,23.625,VALID,101,VALID,0.574219,
2009-04-27, 01:17:05,VALID,1000.84,VALID,0,VALID,91.5554,VALID,0,VALID,23.6445,VALID,101,VALID,0.392969,
2009-04-27, 01:18:05,VALID,1000.83,VALID,0,VALID,91.4028,VALID,0,VALID,23.6445,VALID,101,VALID,0.424219,
2009-04-27, 01:19:05,VALID,1000.87,VALID,0,VALID,91.3342,VALID,0,VALID,23.664,VALID,101,VALID,0.363672,
2009-04-27, 01:20:05,VALID,1000.9,VALID,0,VALID,91.2503,VALID,0,VALID,23.6445,VALID,101,VALID,0.287891,
2009-04-27, 01:21:05,VALID,1000.9,VALID,0,VALID,91.3647,VALID,0,VALID,23.6445,VALID,101,VALID,0.319531,
2009-04-27, 01:22:05,VALID,1000.88,VALID,0,VALID,91.5936,VALID,0,VALID,23.6036,VALID,101,VALID,0.420312,
2009-04-27, 01:23:05,VALID,1000.87,VALID,0,VALID,91.6699,VALID,0,VALID,23.6054,VALID,101,VALID,0.546484,
2009-04-27, 01:24:05,VALID,1000.85,VALID,0,VALID,91.8759,VALID,0,VALID,23.5646,VALID,101,VALID,0.459375,
2009-04-27, 01:25:05,VALID,1000.81,VALID,0,VALID,92.0666,VALID,0,VALID,23.5859,VALID,94,VALID,0.633594,
2009-04-27, 01:26:05,VALID,1000.8,VALID,0,VALID,92.0361,VALID,0,VALID,23.5451,VALID,93,VALID,0.609766,
2009-04-27, 01:27:05,VALID,1000.78,VALID,0,VALID,92.1506,VALID,0,VALID,23.5061,VALID,92,VALID,0.584375,
2009-04-27, 01:28:05,VALID,1000.75,VALID,0,VALID,92.4786,VALID,0,VALID,23.5079,VALID,91,VALID,0.494141,
2009-04-27, 01:29:05,VALID,1000.76,VALID,0,VALID,92.2116,VALID,0,VALID,23.4688,VALID,91,VALID,0.521094,
2009-04-27, 01:30:05,VALID,1000.77,VALID,0,VALID,92.2345,VALID,0,VALID,23.428,VALID,73,VALID,0.490234,
2009-04-27, 01:31:05,VALID,1000.75,VALID,0,VALID,92.3108,VALID,0,VALID,23.4103,VALID,73,VALID,0.465625,
2009-04-27, 01:32:05,VALID,1000.75,VALID,0,VALID,92.4634,VALID,0,VALID,23.3908,VALID,73,VALID,0.473437,
2009-04-27, 01:33:05,VALID,1000.77,VALID,0,VALID,92.5244,VALID,0,VALID,23.3518,VALID,73,VALID,0.459375,
2009-04-27, 01:34:05,VALID,1000.76,VALID,0,VALID,92.3794,VALID,0,VALID,23.3323,VALID,73,VALID,0.447656,
2009-04-27, 01:35:05,VALID,1000.74,VALID,0,VALID,92.677,VALID,0,VALID,23.311,VALID,73,VALID,0.471875,
2009-04-27, 01:36:05,VALID,1000.76,VALID,0,VALID,93.0432,VALID,0,VALID,23.3305,VALID,73,VALID,0.512891,
2009-04-27, 01:37:05,VALID,1000.75,VALID,0,VALID,92.6236,VALID,0,VALID,23.3127,VALID,73,VALID,0.426953,
2009-04-27, 01:38:05,VALID,1000.72,VALID,0,VALID,92.6541,VALID,0,VALID,23.2524,VALID,73,VALID,0.425391,
2009-04-27, 01:39:05,VALID,1000.7,VALID,0,VALID,92.822,VALID,0,VALID,23.2347,VALID,73,VALID,0.420312,
2009-04-27, 01:40:05,VALID,1000.66,VALID,0,VALID,92.8677,VALID,0,VALID,23.2347,VALID,73,VALID,0.383203,
2009-04-27, 01:41:05,VALID,1000.67,VALID,0,VALID,92.9974,VALID,0,VALID,23.2152,VALID,73,VALID,0.325,
2009-04-27, 01:42:05,VALID,1000.66,VALID,0,VALID,93.0814,VALID,0,VALID,23.1762,VALID,73,VALID,0.225,
2009-04-27, 01:43:05,VALID,1000.68,VALID,0,VALID,93.2034,VALID,0,VALID,23.1762,VALID,73,VALID,0.335547,
2009-04-27, 01:44:05,VALID,1000.66,VALID,0,VALID,93.3408,VALID,0,VALID,23.1957,VALID,85,VALID,0.495703,
2009-04-27, 01:45:05,VALID,1000.66,VALID,0,VALID,93.2111,VALID,0,VALID,23.2152,VALID,102,VALID,0.354688,
2009-04-27, 01:46:05,VALID,1000.64,VALID,0,VALID,93.0051,VALID,0,VALID,23.2542,VALID,102,VALID,0.267188,
2009-04-27, 01:47:05,VALID,1000.65,VALID,0,VALID,92.8296,VALID,0,VALID,23.2737,VALID,102,VALID,0.426953,
2009-04-27, 01:48:05,VALID,1000.61,VALID,0,VALID,92.4634,VALID,0,VALID,23.2915,VALID,102,VALID,0.403516,
2009-04-27, 01:49:05,VALID,1000.6,VALID,0,VALID,92.1811,VALID,0,VALID,23.311,VALID,102,VALID,0.293359,
2009-04-27, 01:50:05,VALID,1000.62,VALID,0,VALID,92.0514,VALID,0,VALID,23.3323,VALID,102,VALID,0.366016,
2009-04-27, 01:51:05,VALID,1000.6,VALID,0,VALID,91.9598,VALID,0,VALID,23.3323,VALID,102,VALID,0.350781,
2009-04-27, 01:52:05,VALID,1000.59,VALID,0,VALID,92.3642,VALID,0,VALID,23.3323,VALID,102,VALID,0.239063,
2009-04-27, 01:53:05,VALID,1000.6,VALID,0,VALID,92.326,VALID,0,VALID,23.2932,VALID,102,VALID,0.265625,
2009-04-27, 01:54:05,VALID,1000.61,VALID,0,VALID,92.3947,VALID,0,VALID,23.2719,VALID,102,VALID,0.325391,
2009-04-27, 01:55:05,VALID,1000.62,VALID,0,VALID,92.616,VALID,0,VALID,23.2542,VALID,102,VALID,0.390625,
2009-04-27, 01:56:05,VALID,1000.65,VALID,0,VALID,92.6083,VALID,0,VALID,23.2347,VALID,102,VALID,0.404297,
2009-04-27, 01:57:05,VALID,1000.66,VALID,0,VALID,92.6694,VALID,0,VALID,23.2152,VALID,102,VALID,0.403125,
2009-04-27, 01:58:05,VALID,1000.66,VALID,0,VALID,92.7151,VALID,0,VALID,23.1744,VALID,102,VALID,0.3125,
2009-04-27, 01:59:05,VALID,1000.69,VALID,0,VALID,92.7609,VALID,0,VALID,23.1762,VALID,102,VALID,0.370313,
2009-04-27, 02:00:05,VALID,1000.69,VALID,0,VALID,92.7533,VALID,0,VALID,23.1566,VALID,102,VALID,0.276563,
2009-04-27, 02:01:05,VALID,1000.71,VALID,0,VALID,92.8601,VALID,0,VALID,23.0964,VALID,102,VALID,0.144922,
2009-04-27, 02:02:05,VALID,1000.73,VALID,0,VALID,92.9822,VALID,0,VALID,23.0981,VALID,102,VALID,0.078125,
2009-04-27, 02:03:05,VALID,1000.71,VALID,0,VALID,93.0661,VALID,0,VALID,23.0591,VALID,102,VALID,0.146875,
2009-04-27, 02:04:05,VALID,1000.72,VALID,0,VALID,93.2034,VALID,0,VALID,23.0396,VALID,102,VALID,0.186328,
2009-04-27, 02:05:05,VALID,1000.7,VALID,0,VALID,93.3713,VALID,0,VALID,23.0378,VALID,102,VALID,0.148438,
2009-04-27, 02:06:05,VALID,1000.7,VALID,0,VALID,93.501,VALID,0,VALID,23.0396,VALID,102,VALID,0.216016,
2009-04-27, 02:07:05,VALID,1000.69,VALID,0,VALID,93.6612,VALID,0,VALID,23.0378,VALID,102,VALID,0.348047,
2009-04-27, 02:08:05,VALID,1000.7,VALID,0,VALID,93.7375,VALID,0,VALID,23.0573,VALID,102,VALID,0.367578,
2009-04-27, 02:09:05,VALID,1000.67,VALID,0,VALID,93.7528,VALID,0,VALID,23.0769,VALID,102,VALID,0.404297,
2009-04-27, 02:10:05,VALID,1000.66,VALID,0,VALID,93.7833,VALID,0,VALID,23.0964,VALID,102,VALID,0.376953,
2009-04-27, 02:11:05,VALID,1000.63,VALID,0,VALID,93.7985,VALID,0,VALID,23.1354,VALID,102,VALID,0.388281,
2009-04-27, 02:12:05,VALID,1000.64,VALID,0,VALID,93.7833,VALID,0,VALID,23.1744,VALID,102,VALID,0.338281,
2009-04-27, 02:13:05,VALID,1000.62,VALID,0,VALID,93.768,VALID,0,VALID,23.1744,VALID,102,VALID,0.355859,
2009-04-27, 02:14:05,VALID,1000.61,VALID,0,VALID,93.6688,VALID,0,VALID,23.1957,VALID,102,VALID,0.303516,
2009-04-27, 02:15:05,VALID,1000.6,VALID,0,VALID,93.646,VALID,0,VALID,23.1939,VALID,102,VALID,0.207031,
2009-04-27, 02:16:05,VALID,1000.64,VALID,0,VALID,93.6688,VALID,0,VALID,23.1939,VALID,102,VALID,0,
2009-04-27, 02:17:05,VALID,1000.62,VALID,0,VALID,93.6536,VALID,0,VALID,23.1744,VALID,102,VALID,0,
2009-04-27, 02:18:05,VALID,1000.64,VALID,0,VALID,93.6383,VALID,0,VALID,23.1744,VALID,102,VALID,0,
2009-04-27, 02:19:05,VALID,1000.66,VALID,0,VALID,93.5697,VALID,0,VALID,23.1549,VALID,102,VALID,0,
2009-04-27, 02:20:05,VALID,1000.67,VALID,0,VALID,93.4552,VALID,0,VALID,23.1371,VALID,102,VALID,0,
2009-04-27, 02:21:05,VALID,1000.64,VALID,0,VALID,93.4934,VALID,0,VALID,23.0964,VALID,102,VALID,0,
2009-04-27, 02:22:05,VALID,1000.62,VALID,0,VALID,93.7146,VALID,0,VALID,23.0964,VALID,102,VALID,0,
2009-04-27, 02:23:05,VALID,1000.61,VALID,0,VALID,93.8367,VALID,0,VALID,23.1371,VALID,102,VALID,0,
2009-04-27, 02:24:05,VALID,1000.64,VALID,0,VALID,93.9206,VALID,0,VALID,23.1354,VALID,102,VALID,0,
2009-04-27, 02:25:05,VALID,1000.61,VALID,0,VALID,93.7757,VALID,0,VALID,23.1159,VALID,102,VALID,0.160156,
2009-04-27, 02:26:05,VALID,1000.61,VALID,0,VALID,93.5239,VALID,0,VALID,23.0964,VALID,102,VALID,0.321484,
2009-04-27, 02:27:05,VALID,1000.66,VALID,0,VALID,93.3255,VALID,0,VALID,23.0378,VALID,102,VALID,0.45625,
2009-04-27, 02:28:05,VALID,1000.67,VALID,0,VALID,93.3713,VALID,0,VALID,23.0183,VALID,48,VALID,0.580859,
2009-04-27, 02:29:05,VALID,1000.66,VALID,0,VALID,93.5315,VALID,0,VALID,22.9793,VALID,43,VALID,0.653516,
2009-04-27, 02:30:05,VALID,1000.67,VALID,0,VALID,93.8825,VALID,0,VALID,23.0396,VALID,43,VALID,0.620313,
2009-04-27, 02:31:05,VALID,1000.66,VALID,0,VALID,93.9511,VALID,0,VALID,23.0591,VALID,43,VALID,0.623828,
2009-04-27, 02:32:05,VALID,1000.67,VALID,0,VALID,93.6612,VALID,0,VALID,23.0006,VALID,43,VALID,0.658594,
2009-04-27, 02:33:05,VALID,1000.65,VALID,0,VALID,93.7451,VALID,0,VALID,22.9598,VALID,43,VALID,0.511719,
2009-04-27, 02:34:05,VALID,1000.63,VALID,0,VALID,93.913,VALID,0,VALID,22.942,VALID,43,VALID,0.475,
2009-04-27, 02:35:05,VALID,1000.63,VALID,0,VALID,93.768,VALID,0,VALID,22.8623,VALID,43,VALID,0.41875,
2009-04-27, 02:36:05,VALID,1000.61,VALID,0,VALID,93.9435,VALID,0,VALID,22.8427,VALID,43,VALID,0.357422,
2009-04-27, 02:37:05,VALID,1000.59,VALID,0,VALID,94.0427,VALID,0,VALID,22.8037,VALID,43,VALID,0.432813,
2009-04-27, 02:38:05,VALID,1000.59,VALID,0,VALID,94.3403,VALID,0,VALID,22.8427,VALID,43,VALID,0.530469,
2009-04-27, 02:39:05,VALID,1000.6,VALID,0,VALID,94.3403,VALID,0,VALID,22.8427,VALID,43,VALID,0.298438,
2009-04-27, 02:40:05,VALID,1000.6,VALID,0,VALID,94.2258,VALID,0,VALID,22.8037,VALID,43,VALID,0.242188,
2009-04-27, 02:41:05,VALID,1000.61,VALID,0,VALID,94.1953,VALID,0,VALID,22.7647,VALID,43,VALID,0.188281,
2009-04-27, 02:42:05,VALID,1000.61,VALID,0,VALID,94.1571,VALID,0,VALID,22.7452,VALID,43,VALID,0.148438,
2009-04-27, 02:43:05,VALID,1000.6,VALID,0,VALID,94.1953,VALID,0,VALID,22.7062,VALID,43,VALID,0.124609,
2009-04-27, 02:44:05,VALID,1000.6,VALID,0,VALID,94.2792,VALID,0,VALID,22.7062,VALID,43,VALID,0.328906,
2009-04-27, 02:45:05,VALID,1000.61,VALID,0,VALID,94.3631,VALID,0,VALID,22.7079,VALID,52,VALID,0.542969,
2009-04-27, 02:46:05,VALID,1000.61,VALID,0,VALID,94.5691,VALID,0,VALID,22.7664,VALID,93,VALID,0.688281,
2009-04-27, 02:47:05,VALID,1000.59,VALID,0,VALID,94.6149,VALID,0.112286,VALID,22.7842,VALID,93,VALID,0.735547,
2009-04-27, 02:48:05,VALID,1000.64,VALID,0,VALID,94.5234,VALID,0,VALID,22.7842,VALID,93,VALID,0.646484,
2009-04-27, 02:49:05,VALID,1000.67,VALID,0,VALID,94.4776,VALID,0,VALID,22.7842,VALID,96,VALID,0.579687,
2009-04-27, 02:50:05,VALID,1000.69,VALID,0,VALID,94.4928,VALID,0,VALID,22.8232,VALID,96,VALID,0.529297,
2009-04-27, 02:51:05,VALID,1000.65,VALID,0,VALID,94.531,VALID,0.112286,VALID,22.8427,VALID,96,VALID,0.451953,
2009-04-27, 02:52:05,VALID,1000.63,VALID,0,VALID,94.531,VALID,0,VALID,22.8623,VALID,96,VALID,0.471484,
2009-04-27, 02:53:05,VALID,1000.62,VALID,0,VALID,94.5005,VALID,0,VALID,22.8623,VALID,96,VALID,0.390234,
2009-04-27, 02:54:05,VALID,1000.59,VALID,0,VALID,94.4547,VALID,0,VALID,22.8818,VALID,96,VALID,0.43125,
2009-04-27, 02:55:05,VALID,1000.58,VALID,0,VALID,94.4776,VALID,0.112286,VALID,22.9013,VALID,96,VALID,0.398828,
2009-04-27, 02:56:05,VALID,1000.61,VALID,0,VALID,94.4928,VALID,0,VALID,22.9208,VALID,96,VALID,0.35,
2009-04-27, 02:57:05,VALID,1000.61,VALID,0,VALID,94.4623,VALID,0,VALID,22.9403,VALID,96,VALID,0.178516,
2009-04-27, 02:58:05,VALID,1000.61,VALID,0,VALID,94.3937,VALID,0,VALID,22.9403,VALID,96,VALID,0.0804688,
2009-04-27, 02:59:05,VALID,1000.62,VALID,0,VALID,94.3479,VALID,0,VALID,22.9403,VALID,96,VALID,0.207031,
2009-04-27, 03:00:05,VALID,1000.58,VALID,0,VALID,94.2792,VALID,0,VALID,22.9598,VALID,98,VALID,0.423828,
2009-04-27, 03:01:05,VALID,1000.56,VALID,0,VALID,94.2258,VALID,0,VALID,22.9811,VALID,101,VALID,0.320313,
2009-04-27, 03:02:05,VALID,1000.57,VALID,0,VALID,94.0503,VALID,0,VALID,23.0006,VALID,106,VALID,0.370703,
2009-04-27, 03:03:05,VALID,1000.55,VALID,0,VALID,93.9664,VALID,0,VALID,23.0006,VALID,106,VALID,0.465234,
2009-04-27, 03:04:05,VALID,1000.54,VALID,0,VALID,93.7375,VALID,0,VALID,23.0006,VALID,106,VALID,0.49375,
2009-04-27, 03:05:05,VALID,1000.54,VALID,0,VALID,93.7146,VALID,0,VALID,22.9988,VALID,103,VALID,0.547266,
2009-04-27, 03:06:05,VALID,1000.53,VALID,0,VALID,93.6078,VALID,0,VALID,23.0396,VALID,101,VALID,0.445703,
2009-04-27, 03:07:05,VALID,1000.51,VALID,0,VALID,93.3637,VALID,0,VALID,23.0378,VALID,78,VALID,0.735156,
2009-04-27, 03:08:05,VALID,1000.51,VALID,0,VALID,93.1958,VALID,0,VALID,23.0378,VALID,80,VALID,0.581641,
2009-04-27, 03:09:05,VALID,1000.51,VALID,0,VALID,92.9974,VALID,0,VALID,23.0591,VALID,80,VALID,0.507031,
2009-04-27, 03:10:05,VALID,1000.51,VALID,0,VALID,92.9822,VALID,0,VALID,23.0591,VALID,80,VALID,0.536328,
2009-04-27, 03:11:05,VALID,1000.52,VALID,0,VALID,92.9288,VALID,0,VALID,23.0378,VALID,80,VALID,0.705469,
2009-04-27, 03:12:05,VALID,1000.51,VALID,0,VALID,93.0051,VALID,0,VALID,23.0786,VALID,80,VALID,0.695313,
2009-04-27, 03:13:05,VALID,1000.51,VALID,0,VALID,92.7762,VALID,0,VALID,23.0573,VALID,67,VALID,0.621484,
2009-04-27, 03:14:05,VALID,1000.51,VALID,0,VALID,92.677,VALID,0,VALID,23.0378,VALID,67,VALID,0.5125,
2009-04-27, 03:15:05,VALID,1000.51,VALID,0,VALID,92.4786,VALID,0,VALID,23.0396,VALID,44,VALID,0.608984,
2009-04-27, 03:16:05,VALID,1000.47,VALID,0,VALID,92.3566,VALID,0,VALID,22.9811,VALID,38,VALID,0.604297,
2009-04-27, 03:17:05,VALID,1000.46,VALID,0,VALID,92.6388,VALID,0,VALID,22.9403,VALID,38,VALID,0.632031,
2009-04-27, 03:18:05,VALID,1000.45,VALID,0,VALID,92.7838,VALID,0,VALID,22.9208,VALID,32,VALID,0.848437,
2009-04-27, 03:19:05,VALID,1000.43,VALID,0,VALID,92.7457,VALID,0,VALID,22.8818,VALID,32,VALID,0.841016,
2009-04-27, 03:20:05,VALID,1000.44,VALID,0,VALID,92.7991,VALID,0,VALID,22.8623,VALID,33,VALID,0.942187,
2009-04-27, 03:21:05,VALID,1000.44,VALID,0,VALID,92.7991,VALID,0,VALID,22.8427,VALID,38,VALID,0.899609,
2009-04-27, 03:22:05,VALID,1000.45,VALID,0,VALID,93.0432,VALID,0,VALID,22.8445,VALID,45,VALID,1.12109,
2009-04-27, 03:23:05,VALID,1000.42,VALID,0,VALID,93.2187,VALID,0,VALID,22.8037,VALID,48,VALID,1.24609,
2009-04-27, 03:24:05,VALID,1000.4,VALID,0,VALID,93.3179,VALID,0,VALID,22.7842,VALID,45,VALID,1.30234,
2009-04-27, 03:25:05,VALID,1000.39,VALID,0,VALID,93.2797,VALID,0,VALID,22.7842,VALID,38,VALID,1.16094,
2009-04-27, 03:26:05,VALID,1000.37,VALID,0,VALID,93.3103,VALID,0,VALID,22.7647,VALID,37,VALID,1.23281,
2009-04-27, 03:27:05,VALID,1000.36,VALID,0,VALID,93.5239,VALID,0,VALID,22.7469,VALID,34,VALID,1.22305,
2009-04-27, 03:28:05,VALID,1000.36,VALID,0,VALID,93.6688,VALID,0,VALID,22.7452,VALID,34,VALID,1.14063,
2009-04-27, 03:29:05,VALID,1000.35,VALID,0,VALID,93.6994,VALID,0,VALID,22.7452,VALID,34,VALID,0.981641,
2009-04-27, 03:30:05,VALID,1000.36,VALID,0,VALID,93.7146,VALID,0,VALID,22.7469,VALID,34,VALID,0.827344,
2009-04-27, 03:31:05,VALID,1000.32,VALID,0,VALID,93.6917,VALID,0,VALID,22.7062,VALID,36,VALID,0.7375,
2009-04-27, 03:32:05,VALID,1000.33,VALID,0,VALID,93.7451,VALID,0,VALID,22.7469,VALID,36,VALID,0.799219,
2009-04-27, 03:33:05,VALID,1000.32,VALID,0,VALID,93.7757,VALID,0,VALID,22.7257,VALID,36,VALID,0.792578,
2009-04-27, 03:34:04,VALID,1000.33,VALID,0,VALID,93.7146,VALID,0,VALID,22.7079,VALID,36,VALID,0.730078,
2009-04-27, 03:35:04,VALID,1000.31,VALID,0,VALID,93.7375,VALID,0,VALID,22.6867,VALID,36,VALID,0.857813,
2009-04-27, 03:36:04,VALID,1000.29,VALID,0,VALID,93.7146,VALID,0,VALID,22.6867,VALID,36,VALID,0.765625,
2009-04-27, 03:37:04,VALID,1000.3,VALID,0,VALID,93.6231,VALID,0,VALID,22.6672,VALID,36,VALID,0.551562,
2009-04-27, 03:38:04,VALID,1000.31,VALID,0,VALID,93.5697,VALID,0,VALID,22.6282,VALID,36,VALID,0.328125,
2009-04-27, 03:39:04,VALID,1000.3,VALID,0,VALID,93.5468,VALID,0,VALID,22.6087,VALID,36,VALID,0.173438,
2009-04-27, 03:40:04,VALID,1000.29,VALID,0,VALID,93.5773,VALID,0,VALID,22.5909,VALID,36,VALID,0.273047,
2009-04-27, 03:41:04,VALID,1000.29,VALID,0,VALID,93.7299,VALID,0,VALID,22.5909,VALID,36,VALID,0.371094,
2009-04-27, 03:42:04,VALID,1000.31,VALID,0,VALID,93.8367,VALID,0,VALID,22.5696,VALID,36,VALID,0.410156,
2009-04-27, 03:43:04,VALID,1000.27,VALID,0,VALID,93.9588,VALID,0,VALID,22.5696,VALID,36,VALID,0.555078,
2009-04-27, 03:44:04,VALID,1000.27,VALID,0,VALID,94.0732,VALID,0,VALID,22.5696,VALID,36,VALID,0.540234,
2009-04-27, 03:45:04,VALID,1000.26,VALID,0,VALID,94.0427,VALID,0,VALID,22.5714,VALID,36,VALID,0.430469,